Regional Weather Roundup
Issued by NWS

Home | Current Version | Previous Version | Text Only | Print | Product List | Glossary On
Versions: 1 2 3 4 5 6 7 8 9 10 11 12 13 14 15 16 17 18 19 20 21 22 23 24 25 26 27
000
ASCA42 TJSJ 252210
RWRPR
PUERTO RICO/U.S. VIRGIN ISLANDS HOURLY WEATHER ROUNDUP
NATIONAL WEATHER SERVICE SAN JUAN PR
600 PM AST TUE APR 25 2017

PRZ001>002-007>008-010-252300-
PUERTO RICO

CITY           SKY/WX    TMP DP  RH WIND       PRES   REMARKS
SAN JUAN LMM   MOCLDY    88  75  66 S10       29.89F HX  97
AGUADILLA      PTSUNNY   81  75  83 SE3       29.91S
CEIBA          PTCLDY    81  75  83 S9        29.93S
$$

VIZ001>002-252300-
U.S. VIRGIN ISLANDS

CITY           SKY/WX    TMP DP  RH WIND       PRES   REMARKS
CHARLOTTE AMA  CLOUDY    81  75  83 SE12      29.92S
CHRISTIANSTED  PTCLDY    82  75  78 E12       29.93R
$$

HOURLY WEATHER ROUNDUP FOR THE NEWS MEDIA

CITY           SKY/WX    TMP DP  RH WIND       PRES   REMARKS
ORLANDO        SUNNY     80  53  39 W9        29.77S
NEW YORK       RAIN      55  54  96 NE21      29.92F FOG
NEWARK         LGT RAIN  54  52  93 NE17G26   29.91F FOG
CHICAGO        CLOUDY    78  50  37 SE18G24   29.54F
HARTFORD       LGT RAIN  53  51  93 E13G20    30.09F
BOSTON         LGT RAIN  46  45  96 NE21      30.18F FOG
DALLAS         PTSUNNY   86  65  49 S24G30    29.45F
PHILADELPHIA   CLOUDY    56  54  93 NE17G26   29.83R
LOS ANGELES    PTSUNNY   68  52  56 W23       29.88F
WASHINGTON DC  DRIZZLE   59  57  93 NE9       29.74F FOG



USA.gov is the U.S. government's official web portal to all federal, state and local government web resources and services.